RYR6209 EPRZ-EGPH

Flight info

Callsign RYR6209
Flight time 2h 34m
Altitude 36000
Route ETITI DCT BINKA DCT KOSEB DCT PETIL DCT SURAT DCT AGPED
Aircraft B738/M-SDE2E3FGHIRWXY/LB1

Departure

Time 2026-05-08 18:08
Airport Rzeszów-Jasionka Airport (EPRZ)

Arrival

Time 2026-05-08 20:43
Airport Edinburgh Airport (EGPH)
Time Latitude Longitude Altitude Speed Heading
2026-05-08 17:17 50.11413 22.02534 678 ft 0 kts
2026-05-08 17:51 50.11410 22.02534 682 ft 3 kts
2026-05-08 17:52 50.11383 22.02532 682 ft 4 kts
2026-05-08 17:52 50.11357 22.02523 682 ft 4 kts 20°
2026-05-08 17:52 50.11323 22.02476 687 ft 4 kts 91°
2026-05-08 17:55 50.11323 22.02485 683 ft 7 kts 91°
2026-05-08 17:56 50.11322 22.02622 685 ft 16 kts 91°
2026-05-08 17:56 50.11278 22.02741 687 ft 10 kts 168°
2026-05-08 17:56 50.11212 22.02743 683 ft 9 kts 181°
2026-05-08 17:56 50.11117 22.02740 691 ft 15 kts 181°
2026-05-08 17:57 50.11090 22.02740 689 ft 0 kts 181°
2026-05-08 17:58 50.11081 22.02739 691 ft 9 kts 181°
2026-05-08 17:58 50.11079 22.02739 692 ft 0 kts 181°
2026-05-08 17:58 50.11077 22.02739 692 ft 4 kts 181°
2026-05-08 17:58 50.10987 22.02823 690 ft 20 kts 96°
2026-05-08 17:59 50.10982 22.03040 688 ft 24 kts 91°
2026-05-08 17:59 50.10977 22.03375 689 ft 39 kts 91°
2026-05-08 17:59 50.10971 22.03822 682 ft 41 kts 91°
2026-05-08 17:59 50.10965 22.04257 679 ft 39 kts 91°
2026-05-08 18:00 50.10945 22.04549 679 ft 7 kts 108°
2026-05-08 18:00 50.10961 22.04535 678 ft 7 kts 277°
2026-05-08 18:00 50.10961 22.04520 679 ft 0 kts 270°
2026-05-08 18:01 50.10961 22.04515 679 ft 0 kts 270°
2026-05-08 18:01 50.10961 22.04510 679 ft 0 kts 270°
2026-05-08 18:01 50.10961 22.04506 679 ft 0 kts 270°
2026-05-08 18:01 50.10961 22.04501 679 ft 0 kts 270°
2026-05-08 18:02 50.10961 22.04497 679 ft 0 kts 270°
2026-05-08 18:02 50.10961 22.04495 679 ft 0 kts 270°
2026-05-08 18:02 50.10961 22.04490 679 ft 0 kts 270°
2026-05-08 18:02 50.10961 22.04487 679 ft 0 kts 270°
2026-05-08 18:07 50.10961 22.04484 679 ft 1 kts 270°
2026-05-08 18:07 50.10965 22.04260 679 ft 61 kts 272°
2026-05-08 18:08 50.10980 22.03162 689 ft 139 kts 270°
2026-05-08 18:08 50.11014 22.01340 981 ft 186 kts 273°
2026-05-08 18:08 50.11075 21.99267 1878 ft 204 kts 272°
2026-05-08 18:08 50.11088 21.96968 2631 ft 219 kts 271°
2026-05-08 18:09 50.11102 21.94508 3422 ft 235 kts 271°
2026-05-08 18:09 50.11127 21.91864 4200 ft 254 kts 271°
2026-05-08 18:09 50.11161 21.88992 5003 ft 275 kts 271°
2026-05-08 18:09 50.11186 21.87022 5524 ft 288 kts 271°
2026-05-08 18:10 50.11363 21.83808 6318 ft 308 kts 285°
2026-05-08 18:10 50.12358 21.80815 7095 ft 326 kts 304°
2026-05-08 18:10 50.13758 21.77912 7875 ft 342 kts 306°
2026-05-08 18:10 50.15221 21.74914 8783 ft 353 kts 305°
2026-05-08 18:11 50.16716 21.71815 9717 ft 362 kts 304°
2026-05-08 18:11 50.18247 21.68590 10605 ft 369 kts 304°
2026-05-08 18:11 50.19757 21.65370 11459 ft 375 kts 304°
2026-05-08 18:11 50.21296 21.62058 12354 ft 379 kts 304°
2026-05-08 18:12 50.22843 21.58708 13264 ft 382 kts 304°
2026-05-08 18:12 50.24418 21.55285 13815 ft 389 kts 304°
2026-05-08 18:12 50.25944 21.51962 14004 ft 366 kts 304°
2026-05-08 18:12 50.27411 21.48751 14012 ft 370 kts 303°
2026-05-08 18:13 50.28963 21.45351 14033 ft 397 kts 304°
2026-05-08 18:13 50.30221 21.42596 14034 ft 416 kts 304°
2026-05-08 18:13 50.31946 21.38819 14097 ft 435 kts 304°
2026-05-08 18:13 50.33640 21.35116 14877 ft 406 kts 304°
2026-05-08 18:14 50.35264 21.31556 15489 ft 398 kts 303°
2026-05-08 18:14 50.36865 21.28037 16264 ft 395 kts 303°
2026-05-08 18:14 50.38452 21.24540 17026 ft 393 kts 303°
2026-05-08 18:14 50.40064 21.21092 17811 ft 391 kts 307°
2026-05-08 18:15 50.41801 21.17831 18577 ft 388 kts 308°
2026-05-08 18:15 50.43565 21.14643 19297 ft 385 kts 309°
2026-05-08 18:15 50.45322 21.11501 20029 ft 381 kts 309°
2026-05-08 18:15 50.46476 21.09438 20516 ft 379 kts 308°
2026-05-08 18:16 50.48200 21.06342 21275 ft 375 kts 308°
2026-05-08 18:16 50.49905 21.03269 21995 ft 372 kts 308°
2026-05-08 18:16 50.51599 21.00199 22654 ft 371 kts 308°
2026-05-08 18:16 50.53284 20.97135 23338 ft 369 kts 308°
2026-05-08 18:17 50.54958 20.94081 23896 ft 370 kts 308°
2026-05-08 18:17 50.56645 20.90997 24256 ft 374 kts 308°
2026-05-08 18:17 50.58347 20.87879 24613 ft 377 kts 308°
2026-05-08 18:17 50.60064 20.84730 24985 ft 381 kts 307°
2026-05-08 18:18 50.61795 20.81551 25356 ft 384 kts 307°
2026-05-08 18:18 50.63539 20.78344 25725 ft 387 kts 307°
2026-05-08 18:18 50.65294 20.75116 26113 ft 389 kts 307°
2026-05-08 18:18 50.67060 20.71861 26498 ft 391 kts 307°
2026-05-08 18:19 50.68832 20.68593 26887 ft 393 kts 307°
2026-05-08 18:19 50.70585 20.65354 27274 ft 394 kts 307°
2026-05-08 18:19 50.72372 20.62050 27669 ft 396 kts 307°
2026-05-08 18:19 50.74158 20.58743 28075 ft 396 kts 307°
2026-05-08 18:20 50.75947 20.55426 28477 ft 397 kts 307°
2026-05-08 18:20 50.77735 20.52106 28893 ft 397 kts 307°
2026-05-08 18:20 50.79528 20.48774 29315 ft 398 kts 307°
2026-05-08 18:20 50.81324 20.45430 29610 ft 401 kts 307°
2026-05-08 18:21 50.83136 20.42050 29910 ft 403 kts 307°
2026-05-08 18:21 50.84959 20.38646 30199 ft 406 kts 307°
2026-05-08 18:21 50.86787 20.35228 30455 ft 408 kts 307°
2026-05-08 18:21 50.88623 20.31791 30708 ft 410 kts 307°
2026-05-08 18:22 50.90471 20.28328 30944 ft 412 kts 307°
2026-05-08 18:22 50.92324 20.24852 31194 ft 413 kts 307°
2026-05-08 18:22 50.94181 20.21363 31455 ft 415 kts 307°
2026-05-08 18:22 50.96043 20.17860 31705 ft 416 kts 307°
2026-05-08 18:23 50.97909 20.14343 31962 ft 417 kts 306°
2026-05-08 18:23 50.99780 20.10813 32224 ft 418 kts 306°
2026-05-08 18:23 51.01657 20.07268 32483 ft 419 kts 306°
2026-05-08 18:23 51.03530 20.03725 32746 ft 420 kts 306°
2026-05-08 18:24 51.05407 20.00167 33014 ft 420 kts 306°
2026-05-08 18:24 51.07283 19.96610 33284 ft 420 kts 306°
2026-05-08 18:24 51.09160 19.93043 33548 ft 420 kts 306°
2026-05-08 18:24 51.11032 19.89482 33824 ft 420 kts 306°
2026-05-08 18:25 51.12907 19.85911 34098 ft 420 kts 306°
2026-05-08 18:25 51.14778 19.82340 34338 ft 419 kts 306°
2026-05-08 18:25 51.16648 19.78767 34563 ft 419 kts 306°
2026-05-08 18:25 51.18510 19.75205 34802 ft 418 kts 306°
2026-05-08 18:26 51.20371 19.71642 35030 ft 417 kts 306°
2026-05-08 18:26 51.22202 19.68129 35261 ft 417 kts 306°
2026-05-08 18:26 51.24053 19.64574 35499 ft 416 kts 306°
2026-05-08 18:26 51.25894 19.61031 35737 ft 415 kts 306°
2026-05-08 18:27 51.27738 19.57480 35976 ft 414 kts 306°
2026-05-08 18:27 51.28955 19.55132 36046 ft 415 kts 306°
2026-05-08 18:27 51.33301 19.46726 36052 ft 424 kts 306°
2026-05-08 18:28 51.37087 19.39382 36055 ft 431 kts 307°
2026-05-08 18:28 51.40930 19.31910 36052 ft 438 kts 307°
2026-05-08 18:29 51.44823 19.24318 36053 ft 443 kts 307°
2026-05-08 18:29 51.48757 19.16625 36050 ft 447 kts 307°
2026-05-08 18:30 51.52716 19.08862 36046 ft 450 kts 307°
2026-05-08 18:30 51.56665 19.01091 36042 ft 452 kts 307°
2026-05-08 18:31 51.60628 18.93271 36044 ft 451 kts 307°
2026-05-08 18:31 51.64580 18.85447 36048 ft 450 kts 306°
2026-05-08 18:32 51.68520 18.77623 36057 ft 450 kts 306°
2026-05-08 18:32 51.72455 18.69785 36054 ft 450 kts 306°
2026-05-08 18:33 51.76388 18.61926 36058 ft 450 kts 306°
2026-05-08 18:33 51.80321 18.54043 36060 ft 450 kts 306°
2026-05-08 18:34 51.84245 18.46155 36060 ft 450 kts 306°
2026-05-08 18:34 51.88165 18.38249 36064 ft 451 kts 306°
2026-05-08 18:35 51.92086 18.30317 36064 ft 451 kts 306°
2026-05-08 18:35 51.96002 18.22372 36063 ft 451 kts 306°
2026-05-08 18:36 51.99918 18.14399 36064 ft 451 kts 306°
2026-05-08 18:36 52.03828 18.06416 36068 ft 452 kts 306°
2026-05-08 18:37 52.07708 17.98467 36068 ft 452 kts 306°
2026-05-08 18:37 52.11618 17.90433 36069 ft 452 kts 306°
2026-05-08 18:38 52.15514 17.82404 36067 ft 452 kts 306°
2026-05-08 18:38 52.19408 17.74351 36068 ft 452 kts 306°
2026-05-08 18:39 52.23300 17.66279 36070 ft 452 kts 306°
2026-05-08 18:39 52.27184 17.58196 36073 ft 453 kts 306°
2026-05-08 18:40 52.31069 17.50086 36071 ft 453 kts 306°
2026-05-08 18:40 52.34946 17.41967 36077 ft 453 kts 306°
2026-05-08 18:41 52.38816 17.33835 36071 ft 453 kts 306°
2026-05-08 18:41 52.42684 17.25685 36069 ft 453 kts 306°
2026-05-08 18:42 52.46529 17.17555 36062 ft 453 kts 306°
2026-05-08 18:42 52.50386 17.09374 36059 ft 453 kts 306°
2026-05-08 18:43 52.54238 17.01177 36060 ft 453 kts 306°
2026-05-08 18:43 52.58088 16.92957 36059 ft 453 kts 306°
2026-05-08 18:44 52.61928 16.84733 36064 ft 453 kts 306°
2026-05-08 18:44 52.65765 16.76487 36068 ft 453 kts 306°
2026-05-08 18:45 52.69594 16.68233 36071 ft 453 kts 306°
2026-05-08 18:45 52.73418 16.59964 36075 ft 453 kts 306°
2026-05-08 18:46 52.77238 16.51675 36073 ft 454 kts 305°
2026-05-08 18:46 52.81054 16.43367 36075 ft 454 kts 305°
2026-05-08 18:47 52.84839 16.35101 36076 ft 454 kts 305°
2026-05-08 18:47 52.88645 16.26761 36075 ft 454 kts 305°
2026-05-08 18:48 52.92443 16.18412 36082 ft 454 kts 305°
2026-05-08 18:48 52.96240 16.10035 36077 ft 454 kts 305°
2026-05-08 18:49 53.00032 16.01644 36082 ft 454 kts 305°
2026-05-08 18:49 53.03483 15.93983 36083 ft 454 kts 305°
2026-05-08 18:50 53.07265 15.85561 36084 ft 454 kts 305°
2026-05-08 18:50 53.11041 15.77122 36088 ft 454 kts 305°
2026-05-08 18:51 53.14812 15.68667 36087 ft 454 kts 305°
2026-05-08 18:51 53.18579 15.60194 36086 ft 454 kts 305°
2026-05-08 18:52 53.22337 15.51711 36091 ft 454 kts 305°
2026-05-08 18:52 53.26093 15.43205 36094 ft 455 kts 305°
2026-05-08 18:53 53.29840 15.34690 36097 ft 455 kts 305°
2026-05-08 18:53 53.33577 15.26170 36095 ft 454 kts 304°
2026-05-08 18:54 53.37290 15.17675 36095 ft 455 kts 304°
2026-05-08 18:54 53.41017 15.09121 36091 ft 455 kts 304°
2026-05-08 18:55 53.46603 14.96243 36083 ft 455 kts 304°
2026-05-08 18:56 53.50316 14.87648 36084 ft 455 kts 304°
2026-05-08 18:56 53.54030 14.79020 36083 ft 455 kts 304°
2026-05-08 18:57 53.57733 14.70387 36085 ft 455 kts 304°
2026-05-08 18:57 53.61435 14.61728 36092 ft 455 kts 304°
2026-05-08 18:58 53.65128 14.53060 36101 ft 455 kts 304°
2026-05-08 18:58 53.68819 14.44366 36126 ft 455 kts 304°
2026-05-08 18:59 53.72499 14.35670 36131 ft 455 kts 304°
2026-05-08 18:59 53.76260 14.27048 36129 ft 456 kts 310°
2026-05-08 19:00 53.85529 14.12201 36133 ft 458 kts 315°
2026-05-08 19:01 53.90189 14.04827 36142 ft 458 kts 315°
2026-05-08 19:01 53.94835 13.97395 36129 ft 458 kts 315°
2026-05-08 19:02 53.99463 13.89949 36144 ft 458 kts 315°
2026-05-08 19:02 54.04089 13.82480 36152 ft 458 kts 315°
2026-05-08 19:03 54.08717 13.74985 36143 ft 459 kts 314°
2026-05-08 19:03 54.13337 13.67480 36144 ft 459 kts 314°
2026-05-08 19:04 54.17950 13.59962 36144 ft 459 kts 314°
2026-05-08 19:04 54.22567 13.52413 36153 ft 459 kts 314°
2026-05-08 19:05 54.27149 13.44897 36149 ft 459 kts 314°
2026-05-08 19:05 54.31757 13.37313 36148 ft 459 kts 314°
2026-05-08 19:06 54.36364 13.29707 36145 ft 460 kts 314°
2026-05-08 19:06 54.40972 13.22074 36158 ft 460 kts 314°
2026-05-08 19:07 54.45570 13.14431 36157 ft 460 kts 314°
2026-05-08 19:07 54.50164 13.06770 36156 ft 460 kts 314°
2026-05-08 19:08 54.54756 12.99089 36160 ft 460 kts 314°
2026-05-08 19:08 54.59347 12.91382 36159 ft 460 kts 314°
2026-05-08 19:09 54.63903 12.83708 36158 ft 461 kts 314°
2026-05-08 19:09 54.68489 12.75957 36163 ft 461 kts 314°
2026-05-08 19:10 54.73068 12.68197 36164 ft 461 kts 314°
2026-05-08 19:10 54.77265 12.59852 36159 ft 458 kts 301°
2026-05-08 19:11 54.79996 12.49942 36161 ft 456 kts 288°
2026-05-08 19:11 54.81947 12.39457 36155 ft 457 kts 286°
2026-05-08 19:12 54.83824 12.28936 36157 ft 457 kts 287°
2026-05-08 19:12 54.85732 12.18406 36158 ft 457 kts 287°
2026-05-08 19:13 54.87647 12.07949 36162 ft 457 kts 287°
2026-05-08 19:13 54.89577 11.97416 36159 ft 457 kts 287°
2026-05-08 19:14 54.91497 11.86882 36160 ft 457 kts 287°
2026-05-08 19:14 54.93407 11.76336 36160 ft 457 kts 287°
2026-05-08 19:15 54.95308 11.65779 36162 ft 457 kts 287°
2026-05-08 19:15 54.97200 11.55210 36163 ft 457 kts 287°
2026-05-08 19:16 54.99078 11.44657 36161 ft 456 kts 287°
2026-05-08 19:16 55.00946 11.34095 36166 ft 456 kts 287°
2026-05-08 19:17 55.02807 11.23519 36164 ft 456 kts 286°
2026-05-08 19:17 55.04643 11.13018 36166 ft 456 kts 286°
2026-05-08 19:18 55.06184 11.04159 36168 ft 455 kts 286°
2026-05-08 19:18 55.08310 10.91863 36166 ft 455 kts 286°
2026-05-08 19:19 55.09835 10.82988 36162 ft 455 kts 286°
2026-05-08 19:19 55.11643 10.72412 36166 ft 455 kts 286°
2026-05-08 19:20 55.13443 10.61821 36165 ft 455 kts 286°
2026-05-08 19:20 55.15222 10.51288 36165 ft 454 kts 286°
2026-05-08 19:21 55.17002 10.40684 36164 ft 454 kts 286°
2026-05-08 19:21 55.18772 10.30079 36164 ft 454 kts 286°
2026-05-08 19:22 55.20532 10.19471 36161 ft 454 kts 286°
2026-05-08 19:22 55.22280 10.08864 36162 ft 453 kts 286°
2026-05-08 19:23 55.24020 9.98246 36155 ft 453 kts 286°
2026-05-08 19:23 55.25749 9.87624 36154 ft 453 kts 285°
2026-05-08 19:24 55.27467 9.77009 36152 ft 452 kts 285°
2026-05-08 19:24 55.29175 9.66384 36148 ft 452 kts 285°
2026-05-08 19:25 55.30873 9.55761 36161 ft 452 kts 285°
2026-05-08 19:25 55.32561 9.45132 36163 ft 452 kts 285°
2026-05-08 19:26 55.34239 9.34495 36163 ft 451 kts 285°
2026-05-08 19:26 55.35896 9.23928 36162 ft 451 kts 285°
2026-05-08 19:27 55.37556 9.13276 36158 ft 451 kts 285°
2026-05-08 19:27 55.39202 9.02638 36158 ft 451 kts 285°
2026-05-08 19:28 55.40838 8.92003 36155 ft 450 kts 285°
2026-05-08 19:28 55.42464 8.81364 36140 ft 450 kts 285°
2026-05-08 19:29 55.44079 8.70711 36139 ft 450 kts 285°
2026-05-08 19:29 55.45685 8.60060 36160 ft 449 kts 285°
2026-05-08 19:30 55.47271 8.49483 36165 ft 449 kts 285°
2026-05-08 19:30 55.48858 8.38832 36163 ft 449 kts 285°
2026-05-08 19:31 55.50432 8.28187 36159 ft 448 kts 285°
2026-05-08 19:31 55.51998 8.17525 36153 ft 448 kts 285°
2026-05-08 19:32 55.53552 8.06873 36152 ft 448 kts 285°
2026-05-08 19:32 55.55095 7.96229 36144 ft 447 kts 285°
2026-05-08 19:33 55.56626 7.85589 36144 ft 447 kts 285°
2026-05-08 19:33 55.58148 7.74946 36143 ft 446 kts 285°
2026-05-08 19:33 55.59187 7.69804 36127 ft 444 kts 298°
2026-05-08 19:34 55.60596 7.64948 36141 ft 444 kts 293°
2026-05-08 19:34 55.62756 7.54724 36143 ft 444 kts 290°
2026-05-08 19:35 55.64985 7.44628 36146 ft 443 kts 294°
2026-05-08 19:35 55.67432 7.34626 36141 ft 442 kts 294°
2026-05-08 19:36 55.69901 7.24647 36144 ft 442 kts 294°
2026-05-08 19:36 55.72375 7.14677 36143 ft 441 kts 294°
2026-05-08 19:37 55.74834 7.04770 36145 ft 441 kts 294°
2026-05-08 19:37 55.77308 6.94793 36142 ft 440 kts 294°
2026-05-08 19:38 55.79772 6.84846 36145 ft 439 kts 294°
2026-05-08 19:38 55.82234 6.74910 36145 ft 439 kts 294°
2026-05-08 19:39 55.83970 6.64556 36145 ft 440 kts 275°
2026-05-08 19:39 55.84252 6.53742 36142 ft 440 kts 274°
2026-05-08 19:40 55.84601 6.42875 36144 ft 440 kts 275°
2026-05-08 19:40 55.84978 6.31998 36141 ft 439 kts 275°
2026-05-08 19:41 55.85353 6.21129 36137 ft 439 kts 275°
2026-05-08 19:41 55.85715 6.10291 36137 ft 439 kts 275°
2026-05-08 19:42 55.86067 5.99440 36138 ft 438 kts 274°
2026-05-08 19:42 55.86406 5.88679 36135 ft 438 kts 274°
2026-05-08 19:43 55.86740 5.77779 36134 ft 438 kts 274°
2026-05-08 19:43 55.87056 5.67021 36132 ft 438 kts 274°
2026-05-08 19:44 55.87370 5.56186 36133 ft 437 kts 274°
2026-05-08 19:44 55.87674 5.45370 36131 ft 437 kts 274°
2026-05-08 19:45 55.87967 5.34550 36133 ft 437 kts 274°
2026-05-08 19:45 55.88251 5.23723 36133 ft 437 kts 273°
2026-05-08 19:46 55.88525 5.12893 36133 ft 437 kts 273°
2026-05-08 19:46 55.88916 4.96743 36132 ft 436 kts 273°
2026-05-08 19:47 55.89166 4.85953 36131 ft 436 kts 273°
2026-05-08 19:47 55.89406 4.75156 36133 ft 436 kts 273°
2026-05-08 19:48 55.89636 4.64363 36130 ft 435 kts 273°
2026-05-08 19:48 55.89857 4.53593 36128 ft 435 kts 273°
2026-05-08 19:49 55.90068 4.42823 36125 ft 434 kts 272°
2026-05-08 19:49 55.90270 4.32076 36127 ft 434 kts 272°
2026-05-08 19:50 55.90461 4.21336 36122 ft 433 kts 272°
2026-05-08 19:50 55.90644 4.10615 36122 ft 433 kts 272°
2026-05-08 19:51 55.90816 3.99974 36121 ft 432 kts 272°
2026-05-08 19:51 55.90979 3.89269 36118 ft 431 kts 272°
2026-05-08 19:52 55.91133 3.78587 36113 ft 431 kts 272°
2026-05-08 19:52 55.91278 3.67913 36108 ft 430 kts 272°
2026-05-08 19:53 55.91415 3.57244 36106 ft 430 kts 272°
2026-05-08 19:53 55.91157 3.46618 36096 ft 431 kts 260°
2026-05-08 19:54 55.89864 3.36183 36106 ft 431 kts 259°
2026-05-08 19:54 55.88555 3.25761 36109 ft 430 kts 259°
2026-05-08 19:55 55.87259 3.15359 36107 ft 430 kts 259°
2026-05-08 19:55 55.85972 3.05033 36103 ft 430 kts 259°
2026-05-08 19:56 55.84673 2.94656 36102 ft 429 kts 259°
2026-05-08 19:56 55.83366 2.84287 36109 ft 429 kts 259°
2026-05-08 19:57 55.82051 2.73934 36107 ft 429 kts 258°
2026-05-08 19:57 55.80726 2.63582 36105 ft 428 kts 258°
2026-05-08 19:58 55.79404 2.53327 36104 ft 428 kts 258°
2026-05-08 19:58 55.78066 2.43023 36104 ft 428 kts 258°
2026-05-08 19:59 55.76717 2.32705 36101 ft 428 kts 258°
2026-05-08 19:59 55.75364 2.22426 36101 ft 427 kts 258°
2026-05-08 20:00 55.74002 2.12157 36097 ft 427 kts 258°
2026-05-08 20:00 55.72633 2.01903 36096 ft 427 kts 258°
2026-05-08 20:01 55.71256 1.91661 36091 ft 426 kts 258°
2026-05-08 20:01 55.69880 1.81502 36094 ft 426 kts 258°
2026-05-08 20:02 55.68490 1.71302 36092 ft 425 kts 258°
2026-05-08 20:02 55.67091 1.61105 36094 ft 425 kts 257°
2026-05-08 20:03 55.65681 1.50903 36091 ft 425 kts 257°
2026-05-08 20:03 55.64507 1.42456 36091 ft 425 kts 257°
2026-05-08 20:04 55.63087 1.32299 36090 ft 425 kts 257°
2026-05-08 20:04 55.61658 1.22150 36088 ft 424 kts 257°
2026-05-08 20:05 55.60220 1.12007 36083 ft 424 kts 257°
2026-05-08 20:05 55.58787 1.01959 36082 ft 424 kts 257°
2026-05-08 20:06 55.57337 0.91854 36082 ft 424 kts 257°
2026-05-08 20:06 55.55879 0.81765 36080 ft 424 kts 257°
2026-05-08 20:07 55.54412 0.71677 36083 ft 424 kts 256°
2026-05-08 20:07 55.52937 0.61597 36080 ft 424 kts 256°
2026-05-08 20:08 55.51453 0.51535 36080 ft 424 kts 256°
2026-05-08 20:08 55.49960 0.41465 36072 ft 424 kts 256°
2026-05-08 20:09 55.48461 0.31403 36075 ft 423 kts 256°
2026-05-08 20:09 55.46966 0.21438 36067 ft 423 kts 256°
2026-05-08 20:10 55.45452 0.11408 36070 ft 423 kts 256°
2026-05-08 20:10 55.43932 0.01405 36067 ft 423 kts 256°
2026-05-08 20:11 55.42404 -0.08588 36069 ft 422 kts 256°
2026-05-08 20:11 55.40870 -0.18566 36070 ft 422 kts 256°
2026-05-08 20:12 55.39327 -0.28538 36069 ft 422 kts 255°
2026-05-08 20:12 55.37788 -0.38424 36067 ft 421 kts 255°
2026-05-08 20:13 55.36231 -0.48364 36061 ft 421 kts 255°
2026-05-08 20:13 55.34670 -0.58274 35944 ft 422 kts 255°
2026-05-08 20:14 55.33882 -0.63260 35523 ft 423 kts 255°
2026-05-08 20:14 55.33096 -0.68208 35177 ft 418 kts 255°
2026-05-08 20:14 55.32321 -0.73082 34836 ft 412 kts 255°
2026-05-08 20:14 55.31548 -0.77920 34504 ft 411 kts 255°
2026-05-08 20:15 55.30776 -0.82743 34171 ft 410 kts 255°
2026-05-08 20:15 55.30003 -0.87563 33796 ft 410 kts 255°
2026-05-08 20:15 55.29229 -0.92376 33406 ft 410 kts 255°
2026-05-08 20:15 55.28452 -0.97186 33034 ft 411 kts 255°
2026-05-08 20:16 55.27671 -1.02013 32664 ft 412 kts 255°
2026-05-08 20:16 55.26884 -1.06862 32297 ft 414 kts 255°
2026-05-08 20:16 55.26100 -1.11676 31946 ft 417 kts 254°
2026-05-08 20:16 55.25300 -1.16576 31587 ft 419 kts 254°
2026-05-08 20:17 55.24495 -1.21495 31239 ft 421 kts 254°
2026-05-08 20:17 55.23682 -1.26440 30903 ft 423 kts 254°
2026-05-08 20:17 55.22864 -1.31407 30556 ft 425 kts 253°
2026-05-08 20:17 55.22039 -1.36404 30211 ft 427 kts 253°
2026-05-08 20:18 55.21209 -1.41413 29827 ft 429 kts 253°
2026-05-08 20:18 55.20375 -1.46432 29420 ft 430 kts 253°
2026-05-08 20:18 55.19536 -1.51468 29040 ft 432 kts 253°
2026-05-08 20:18 55.18692 -1.56521 28654 ft 433 kts 253°
2026-05-08 20:19 55.17842 -1.61592 28269 ft 435 kts 253°
2026-05-08 20:19 55.16986 -1.66689 27899 ft 437 kts 252°
2026-05-08 20:19 55.16125 -1.71797 27536 ft 439 kts 252°
2026-05-08 20:19 55.15259 -1.76923 27165 ft 441 kts 252°
2026-05-08 20:20 55.14389 -1.82062 26812 ft 442 kts 252°
2026-05-08 20:20 55.13524 -1.87237 26449 ft 444 kts 255°
2026-05-08 20:20 55.13201 -1.92627 26120 ft 452 kts 270°
2026-05-08 20:20 55.13666 -1.98095 26104 ft 459 kts 281°
2026-05-08 20:21 55.14833 -2.03348 26063 ft 468 kts 294°
2026-05-08 20:21 55.16438 -2.08294 26063 ft 469 kts 296°
2026-05-08 20:21 55.18099 -2.13208 26055 ft 468 kts 296°
2026-05-08 20:21 55.19739 -2.18044 26040 ft 468 kts 296°
2026-05-08 20:22 55.21387 -2.22951 26041 ft 467 kts 296°
2026-05-08 20:22 55.23023 -2.27882 26041 ft 467 kts 295°
2026-05-08 20:22 55.24643 -2.32811 26045 ft 466 kts 295°
2026-05-08 20:22 55.26254 -2.37745 26049 ft 466 kts 295°
2026-05-08 20:23 55.27857 -2.42681 26052 ft 466 kts 295°
2026-05-08 20:23 55.29459 -2.47628 26040 ft 466 kts 295°
2026-05-08 20:23 55.31061 -2.52586 26046 ft 466 kts 295°
2026-05-08 20:23 55.32657 -2.57534 26047 ft 466 kts 295°
2026-05-08 20:24 55.34252 -2.62487 26052 ft 466 kts 295°
2026-05-08 20:24 55.35844 -2.67437 26050 ft 465 kts 294°
2026-05-08 20:24 55.37435 -2.72396 26048 ft 465 kts 294°
2026-05-08 20:24 55.39020 -2.77347 26054 ft 465 kts 294°
2026-05-08 20:25 55.40607 -2.82313 26051 ft 465 kts 294°
2026-05-08 20:25 55.42189 -2.87273 26050 ft 465 kts 294°
2026-05-08 20:25 55.43758 -2.92195 25547 ft 469 kts 295°
2026-05-08 20:25 55.45698 -2.96832 24796 ft 475 kts 310°
2026-05-08 20:26 55.48298 -3.00415 23990 ft 476 kts 324°
2026-05-08 20:26 55.51334 -3.02822 22937 ft 481 kts 337°
2026-05-08 20:26 55.54513 -3.04505 21885 ft 472 kts 339°
2026-05-08 20:26 55.57654 -3.06120 20388 ft 471 kts 339°
2026-05-08 20:27 55.60797 -3.07786 19168 ft 467 kts 339°
2026-05-08 20:27 55.63816 -3.09429 18801 ft 441 kts 339°
2026-05-08 20:27 55.66690 -3.11018 18102 ft 425 kts 338°
2026-05-08 20:27 55.69426 -3.12808 17099 ft 412 kts 328°
2026-05-08 20:28 55.71684 -3.15736 16167 ft 396 kts 310°
2026-05-08 20:28 55.73248 -3.19670 15157 ft 388 kts 291°
2026-05-08 20:28 55.73990 -3.24211 14180 ft 383 kts 275°
2026-05-08 20:28 55.73994 -3.28903 13118 ft 380 kts 258°
2026-05-08 20:29 55.73133 -3.33272 12063 ft 375 kts 240°
2026-05-08 20:29 55.71496 -3.36824 11054 ft 374 kts 221°
2026-05-08 20:29 55.69267 -3.39118 10264 ft 369 kts 200°
2026-05-08 20:29 55.66797 -3.39667 9926 ft 354 kts 179°
2026-05-08 20:30 55.64436 -3.38507 8811 ft 364 kts 154°
2026-05-08 20:30 55.62507 -3.35585 7820 ft 370 kts 128°
2026-05-08 20:30 55.61508 -3.31444 7355 ft 361 kts 100°
2026-05-08 20:30 55.61651 -3.27115 7226 ft 352 kts 73°
2026-05-08 20:31 55.62823 -3.23391 7095 ft 342 kts 46°
2026-05-08 20:31 55.64619 -3.20880 7055 ft 319 kts 32°
2026-05-08 20:31 55.66447 -3.18881 7040 ft 300 kts 30°
2026-05-08 20:31 55.68187 -3.17040 7024 ft 282 kts 30°
2026-05-08 20:32 55.69824 -3.15312 7034 ft 266 kts 30°
2026-05-08 20:32 55.71373 -3.13676 7001 ft 252 kts 29°
2026-05-08 20:32 55.72895 -3.12072 6510 ft 259 kts 29°
2026-05-08 20:32 55.74461 -3.10429 6013 ft 264 kts 30°
2026-05-08 20:33 55.76046 -3.08778 5547 ft 263 kts 30°
2026-05-08 20:33 55.77606 -3.07160 5154 ft 255 kts 30°
2026-05-08 20:33 55.79117 -3.05600 4762 ft 247 kts 30°
2026-05-08 20:33 55.80586 -3.04092 4362 ft 240 kts 29°
2026-05-08 20:34 55.82009 -3.02624 4035 ft 231 kts 29°
2026-05-08 20:34 55.83352 -3.01253 3988 ft 216 kts 24°
2026-05-08 20:34 55.86273 -3.00815 4001 ft 214 kts 359°
2026-05-08 20:35 55.87766 -3.00797 4004 ft 215 kts 359°
2026-05-08 20:35 55.89237 -3.00775 3994 ft 214 kts 359°
2026-05-08 20:35 55.90742 -3.00750 3998 ft 214 kts 359°
2026-05-08 20:35 55.92226 -3.00724 3990 ft 210 kts 359°
2026-05-08 20:36 55.93618 -3.00696 3977 ft 195 kts 359°
2026-05-08 20:36 55.94958 -3.00665 3979 ft 187 kts 359°
2026-05-08 20:36 55.96293 -3.00636 3642 ft 197 kts 359°
2026-05-08 20:36 55.97665 -3.00610 3273 ft 198 kts 359°
2026-05-08 20:37 55.99026 -3.00786 2995 ft 192 kts 339°
2026-05-08 20:37 56.00155 -3.01805 3009 ft 182 kts 330°
2026-05-08 20:37 56.01246 -3.02931 3001 ft 181 kts 329°
2026-05-08 20:37 56.02334 -3.04063 2996 ft 181 kts 329°
2026-05-08 20:38 56.03417 -3.05189 2991 ft 180 kts 329°
2026-05-08 20:38 56.04285 -3.06730 2978 ft 177 kts 291°
2026-05-08 20:38 56.04367 -3.08934 3029 ft 184 kts 268°
2026-05-08 20:38 56.04304 -3.11238 3002 ft 186 kts 268°
2026-05-08 20:39 56.04073 -3.13490 2967 ft 185 kts 245°
2026-05-08 20:39 56.03292 -3.15362 2654 ft 189 kts 228°
2026-05-08 20:39 56.02324 -3.16844 2381 ft 178 kts 219°
2026-05-08 20:39 56.01363 -3.18206 1939 ft 175 kts 232°
2026-05-08 20:40 56.00744 -3.19911 1787 ft 152 kts 242°
2026-05-08 20:40 56.00223 -3.21408 1743 ft 139 kts 240°
2026-05-08 20:40 55.99762 -3.22923 1756 ft 140 kts 245°
2026-05-08 20:40 55.99252 -3.24410 1830 ft 143 kts 238°
2026-05-08 20:41 55.98733 -3.25960 1547 ft 145 kts 241°
2026-05-08 20:41 55.98232 -3.27542 1151 ft 144 kts 242°
2026-05-08 20:41 55.97736 -3.29045 969 ft 136 kts 241°
2026-05-08 20:41 55.97421 -3.29992 851 ft 132 kts 238°
2026-05-08 20:42 55.97265 -3.30471 799 ft 131 kts 241°
2026-05-08 20:42 55.96810 -3.31860 661 ft 134 kts 238°
2026-05-08 20:42 55.96336 -3.33275 488 ft 131 kts 238°
2026-05-08 20:42 55.95869 -3.34667 290 ft 133 kts 238°
2026-05-08 20:43 55.95402 -3.36052 116 ft 126 kts 238°
2026-05-08 20:43 55.95093 -3.36969 113 ft 34 kts 238°
2026-05-08 20:43 55.94975 -3.37318 111 ft 31 kts 239°
2026-05-08 20:43 55.94856 -3.37670 116 ft 41 kts 239°
2026-05-08 20:44 55.94723 -3.38041 117 ft 11 kts 217°
2026-05-08 20:44 55.94684 -3.38044 118 ft 5 kts 158°
2026-05-08 20:44 55.94669 -3.38032 115 ft 3 kts 151°
2026-05-08 20:44 55.94599 -3.37945 114 ft 13 kts 127°
2026-05-08 20:45 55.94621 -3.37796 115 ft 13 kts 58°
2026-05-08 20:45 55.94651 -3.37707 115 ft 13 kts 58°
2026-05-08 20:45 55.94713 -3.37522 113 ft 14 kts 57°
2026-05-08 20:45 55.94762 -3.37382 110 ft 13 kts 62°
2026-05-08 20:46 55.94813 -3.37222 106 ft 17 kts 59°
2026-05-08 20:46 55.94875 -3.37045 107 ft 17 kts 57°
2026-05-08 20:46 55.94938 -3.36857 109 ft 22 kts 58°
2026-05-08 20:46 55.95053 -3.36521 112 ft 30 kts 59°
2026-05-08 20:47 55.95125 -3.36305 108 ft 20 kts 62°
2026-05-08 20:47 55.95111 -3.36095 108 ft 16 kts 110°
2026-05-08 20:47 55.95082 -3.35960 106 ft 10 kts 111°
2026-05-08 20:47 55.95059 -3.35900 107 ft 10 kts 128°
2026-05-08 20:48 55.95022 -3.35839 107 ft 5 kts 176°
2026-05-08 20:48 55.94978 -3.35862 107 ft 7 kts 187°
2026-05-08 20:48 55.94943 -3.35859 107 ft 0 kts 165°
2026-05-08 20:48 55.94923 -3.35823 106 ft 4 kts 133°
2026-05-08 20:49 55.94891 -3.35814 106 ft 6 kts 192°
2026-05-08 20:49 55.94874 -3.35829 106 ft 2 kts 211°
2026-05-08 20:49 55.94861 -3.35842 106 ft 2 kts 209°
2026-05-08 20:49 55.94845 -3.35857 106 ft 1 kts 208°
2026-05-08 20:50 55.94845 -3.35858 106 ft 0 kts 208°